Wind_Speed
10 14 4 2 8 7 1 4 6 3 2 3 6 7 6 8 11 15 18 17 18 18 16 17 20 23 20 20 18 23 24 22 14 11 9 8 9 8 8 6 7 9 11 11
13 9 11 14 9 5 1 2 7 8 5 3 3 7 8 6 7 10 13 16 19 19 18 17 19 17 17 15 18 15 12 11 8 5 7 8 10 10 11 11 11 13 15 13
15 13 11 8 4 6 5 10 11 7 6 6 6 6 6 7 5 7 10 11 14 16 17 18 19 18 15 12 9 6 4 4 6 9 11 13 16 15 15 16 15 13 14 15
10 10 11 5 6 7 5 19 8 7 5 10 6 26 2 2 4 3 5 7 10 12 10 12 13 14 13 12 9 6 2 2 5 7 10 11 12 11 10 10 11 12 11 13
2 5 6 8 9 9 9 10 2 1 6 9 5 18 5 5 1 1 1 7 10 12 10 9 7 8 9 9 7 5 4 2 3 5 7 10 11 11 12 12 12 12 12 13
11 9 6 5 3 3 4 13 8 7 2 6 11 20 9 10 3 1 2 4 6 10 12 11 10 8 6 4 4 4 3 4 6 7 8 8 8 9 10 9 9 10 10 9
5 3 4 6 4 6 13 6 6 6 4 14 3 19 15 6 6 1 2 2 7 10 9 8 9 9 8 8 7 3 4 5 7 9 10 11 11 11 9 7 7 6 7 5
1 5 1 4 0 8 6 5 1 7 7 8 5 18 14 3 1 4 3 4 6 9 8 3 5 7 8 7 7 7 8 9 8 8 9 12 14 14 14 11 8 6 6 5
3 5 9 14 2 1 4 2 8 5 5 10 10 2 9 2 1 7 7 6 4 7 9 12 13 12 12 11 12 11 11 10 11 13 13 14 15 16 16 16 13 9 7 6
5 2 4 13 8 5 6 11 3 3 6 10 15 11 18 17 13 10 12 14 12 7 9 12 13 14 15 11 14 16 16 17 14 14 14 17 19 19 21 19 17 14 11 10
7 5 9 10 5 11 9 3 4 6 9 10 11 19 23 12 14 9 8 15 11 7 10 13 9 11 17 16 13 14 13 14 14 14 18 18 21 24 29 24 19 19 15 14
7 10 4 10 19 13 12 13 10 7 12 7 17 22 31 24 9 6 12 12 10 11 16 17 13 15 13 14 15 13 10 11 14 21 23 19 20 27 20 19 16 16 18 18
9 6 7 9 14 12 5 10 11 12 11 9 12 22 4 6 11 15 17 12 16 17 19 21 19 18 17 19 15 14 13 13 19 21 18 19 21 23 18 15 13 16 19 19
20 11 9 12 14 10 8 8 12 9 10 9 11 24 15 12 15 21 24 18 19 19 18 22 23 19 18 19 15 15 17 19 18 17 17 18 19 16 12 11 15 19 22 24
17 14 13 18 17 19 17 14 12 11 14 13 11 6 12 13 15 17 23 22 20 20 20 23 26 18 15 17 19 18 18 17 18 19 19 18 16 12 11 15 22 25 25 27
12 13 19 16 14 14 16 16 15 16 17 18 20 19 15 26 31 25 20 23 25 23 22 23 24 17 15 18 18 21 21 21 21 22 23 23 22 21 20 18 17 20 27 29
13 14 15 16 14 15 15 12 14 16 18 19 18 17 19 35 29 29 28 27 29 25 23 24 23 19 17 17 20 22 25 25 26 25 27 26 24 23 22 20 20 19 19 21
16 19 18 18 17 21 13 19 17 18 16 17 19 21 24 26 27 29 30 29 27 26 24 22 21 19 20 20 21 24 25 26 27 29 29 27 24 24 23 23 22 24 25 26
22 23 21 21 21 20 17 15 18 21 18 19 20 22 27 22 24 26 26 26 25 24 21 20 20 20 20 21 23 24 25 26 28 28 25 25 25 25 25 25 25 27 28 29
31 29 29 26 26 24 14 17 20 19 20 19 21 21 24 21 23 23 22 23 23 22 22 22 21 21 22 23 23 24 25 26 26 25 24 24 23 24 23 23 27 29 28 30
39 36 36 32 32 26 20 18 23 16 15 21 22 20 22 20 23 24 20 21 23 24 24 25 24 23 24 24 24 24 24 24 23 24 25 25 26 28 26 27 28 28 26 26
39 41 36 35 32 28 20 26 24 18 25 24 22 21 20 26 23 24 23 24 25 26 26 24 23 24 24 24 23 24 24 23 24 26 28 28 28 29 28 29 30 29 28 30
43 40 34 32 24 26 34 31 29 25 26 26 25 25 25 24 24 25 25 26 27 27 26 24 24 23 25 24 22 22 25 24 25 25 25 26 28 29 29 30 30 30 32 34
39 40 43 38 38 31 38 31 29 31 30 27 28 27 26 27 27 27 27 26 27 27 25 24 24 22 23 25 26 26 27 27 25 25 26 27 28 29 29 29 31 32 33 34
48 44 48 48 44 39 46 36 31 33 32 30 28 28 30 29 29 29 29 28 26 24 23 24 25 23 24 25 26 26 27 28 28 28 28 29 29 28 29 31 32 32 32 32
59 55 52 48 45 45 45 44 38 37 35 34 32 30 33 32 32 31 29 30 29 26 24 25 26 26 26 27 28 28 27 27 28 30 30 31 30 30 32 32 32 31 32 35
Wind_Direction
219 174 311 347 206 137 34 34 354 232 210 21 353 10 39 42 55 61 64 65 72 73 72 68 64 71 87 90 116 129 135 144 151 166 180 191 200 213 228 248 267 277 281 277
203 172 272 251 208 214 294 26 305 292 254 265 317 331 347 15 38 57 64 69 71 75 71 72 74 76 78 89 97 115 123 122 139 185 213 226 234 244 255 265 269 270 274 275
195 215 254 253 285 282 341 252 252 243 250 313 295 275 346 12 349 40 60 63 65 68 68 66 67 69 73 86 108 130 152 181 199 217 232 243 252 259 269 278 283 276 278 279
221 226 240 236 261 284 242 268 274 272 231 265 240 277 275 23 2 346 48 60 58 58 58 64 68 74 72 70 69 71 68 271 260 259 257 257 262 273 273 270 276 281 279 270
228 210 236 243 255 265 241 246 297 230 189 240 273 268 181 202 111 102 358 66 62 53 49 57 72 78 75 65 56 50 37 342 276 269 269 271 278 279 275 281 282 283 276 274
192 222 259 244 236 266 176 69 14 16 163 223 242 274 242 164 120 83 113 80 46 39 33 26 18 16 19 58 39 7 338 310 307 300 297 295 290 284 288 296 298 300 278 267
289 276 222 84 55 346 101 52 290 248 239 265 227 240 281 340 8 89 277 9 26 29 10 355 350 347 340 334 331 307 286 279 284 291 300 305 301 298 296 287 303 308 306 282
183 266 287 298 59 184 239 201 71 257 237 208 244 267 128 17 90 186 210 103 52 49 27 354 307 313 317 323 322 312 277 262 274 293 292 294 295 296 293 284 286 292 292 295
218 230 274 286 246 103 182 291 263 184 307 257 232 221 242 254 220 226 196 177 208 315 317 315 328 315 317 312 306 294 286 265 266 277 283 287 291 284 283 285 276 278 275 281
226 312 239 292 302 300 227 253 122 249 277 251 285 238 257 252 196 197 230 233 241 284 273 297 318 312 297 301 298 298 298 296 289 290 296 292 294 290 291 274 271 262 261 264
192 237 269 327 240 226 253 296 242 251 232 243 292 261 227 204 169 199 260 257 300 273 303 301 286 291 294 303 307 303 298 301 301 320 311 299 297 295 296 269 263 259 257 257
236 221 249 267 276 270 234 224 221 227 274 222 256 294 306 141 177 226 254 270 298 293 296 294 286 283 291 296 302 295 296 295 294 308 309 298 306 302 284 250 249 258 255 257
241 238 284 302 306 314 255 234 217 238 237 263 247 261 289 253 247 264 262 265 279 286 289 296 294 291 297 304 313 311 305 308 311 311 312 312 309 311 290 224 240 252 258 263
240 235 257 236 254 222 247 246 228 220 222 249 247 280 298 296 264 265 263 261 271 278 285 293 298 294 303 307 310 300 300 301 304 307 303 300 311 317 275 250 261 262 262 266
232 240 256 248 262 247 246 251 252 243 228 229 236 210 258 277 259 253 256 263 266 273 284 294 299 302 307 306 307 302 300 297 296 300 297 294 291 294 291 277 275 276 273 271
245 241 239 258 262 268 260 255 250 245 240 242 238 245 235 259 251 254 251 263 265 273 285 289 290 294 297 296 298 300 301 294 296 299 299 300 297 293 290 287 281 284 283 280
242 244 251 260 254 257 272 282 263 256 244 246 252 257 247 247 258 254 254 256 269 274 276 279 283 290 291 291 293 292 291 293 295 294 296 298 298 296 298 300 298 294 288 274
247 252 248 256 259 263 279 262 258 258 255 246 244 235 257 259 260 257 259 260 265 269 270 273 278 286 292 293 290 285 285 287 287 286 287 287 287 289 292 292 290 287 285 284
244 245 252 258 264 274 274 279 278 272 263 263 253 252 259 261 261 259 260 262 264 265 272 276 280 287 291 287 282 283 285 285 283 281 278 279 283 286 288 286 289 289 287 284
244 242 251 254 258 261 254 258 261 267 274 273 263 256 264 265 260 261 264 266 268 274 281 287 289 288 283 278 281 285 285 281 276 270 272 277 285 293 294 289 290 289 287 285
255 246 249 255 259 258 263 264 273 274 264 252 271 263 262 259 248 273 272 274 275 280 283 285 286 278 276 279 284 285 287 287 280 274 277 285 291 296 295 293 290 287 281 279
252 263 248 251 252 253 255 264 269 269 260 263 265 266 262 262 267 265 267 270 272 275 278 281 280 276 279 283 286 289 290 291 288 282 279 281 285 292 294 293 291 290 285 283
240 240 255 249 250 268 259 254 261 253 259 261 264 264 267 267 268 267 268 269 270 271 273 274 273 277 282 286 291 297 294 291 290 284 278 279 286 291 294 292 289 286 286 286
237 249 242 246 247 241 262 256 251 255 254 254 260 262 263 266 270 269 268 268 272 272 272 273 272 274 282 289 295 296 299 297 294 287 285 284 286 285 287 288 287 285 284 283
242 237 245 248 251 250 255 255 251 249 251 253 252 255 263 264 266 269 271 272 273 272 271 271 272 278 286 292 299 299 299 298 293 289 286 286 286 289 293 292 289 286 284 282
243 245 248 250 254 250 249 253 249 249 249 251 250 249 257 261 266 267 270 271 273 276 274 272 272 278 286 292 298 299 297 295 290 287 288 290 291 293 295 293 291 287 287 289
Height
5915 5917 5918 5917 5918 5920 5923 5924 5924 5919 5918 5917 5916 5915 5915 5914 5912 5910 5908 5907 5904 5902 5903 5902 5899 5896 5899 5898 5899 5903 5908 5910 5913 5918 5920 5922 5923 5924 5925 5925 5926 5926 5926 5926
5915 5919 5920 5917 5919 5921 5924 5926 5926 5920 5919 5918 5917 5916 5915 5915 5914 5914 5912 5910 5907 5905 5905 5905 5903 5903 5903 5906 5905 5909 5913 5914 5916 5920 5921 5922 5922 5923 5924 5924 5925 5925 5925 5926
5916 5916 5916 5917 5921 5923 5926 5925 5921 5920 5919 5918 5917 5916 5915 5916 5915 5915 5914 5912 5911 5909 5910 5908 5907 5907 5907 5908 5910 5913 5915 5917 5918 5920 5922 5922 5922 5923 5923 5923 5923 5923 5924 5924
5914 5918 5914 5918 5920 5921 5925 5917 5917 5918 5920 5923 5920 5911 5914 5915 5915 5915 5915 5915 5914 5913 5914 5912 5911 5911 5912 5912 5912 5914 5915 5916 5918 5919 5920 5921 5921 5921 5921 5921 5921 5922 5922 5921
5917 5917 5917 5917 5918 5915 5918 5914 5915 5915 5918 5921 5920 5915 5909 5911 5911 5914 5915 5916 5916 5915 5916 5915 5915 5914 5914 5914 5915 5915 5916 5917 5918 5919 5919 5919 5919 5919 5920 5920 5920 5920 5921 5921
5913 5914 5914 5914 5913 5913 5914 5914 5917 5918 5920 5923 5919 5911 5895 5897 5908 5912 5914 5916 5916 5916 5916 5916 5916 5915 5916 5917 5917 5916 5917 5917 5918 5918 5918 5918 5918 5918 5918 5918 5918 5918 5918 5919
5915 5916 5914 5911 5914 5917 5915 5918 5923 5924 5923 5918 5919 5910 5909 5908 5908 5912 5915 5915 5915 5916 5917 5916 5916 5916 5916 5916 5916 5916 5916 5916 5916 5916 5917 5917 5917 5916 5916 5916 5916 5915 5916 5917
5919 5918 5915 5914 5915 5916 5917 5919 5920 5922 5920 5919 5919 5907 5895 5908 5912 5914 5914 5915 5916 5916 5916 5916 5916 5915 5915 5915 5915 5914 5914 5914 5915 5915 5915 5914 5914 5913 5913 5913 5913 5914 5913 5914
5921 5918 5914 5913 5912 5914 5919 5918 5917 5919 5920 5916 5917 5908 5905 5908 5911 5912 5914 5915 5915 5916 5916 5916 5915 5914 5914 5914 5913 5913 5911 5911 5911 5912 5912 5912 5911 5910 5910 5910 5911 5911 5912 5912
5917 5917 5916 5913 5911 5912 5912 5913 5918 5919 5918 5917 5911 5898 5901 5901 5904 5909 5910 5912 5914 5915 5916 5915 5915 5913 5913 5913 5911 5910 5909 5908 5908 5909 5909 5908 5907 5906 5906 5907 5907 5908 5909 5910
5912 5917 5918 5914 5914 5913 5913 5914 5916 5917 5916 5915 5914 5899 5898 5903 5910 5905 5905 5911 5911 5912 5912 5912 5912 5912 5911 5910 5909 5907 5906 5905 5905 5905 5904 5903 5902 5901 5901 5901 5904 5906 5906 5906
5910 5911 5914 5914 5910 5909 5907 5909 5912 5916 5916 5912 5910 5907 5882 5866 5907 5907 5902 5907 5909 5909 5909 5908 5908 5907 5908 5906 5905 5904 5903 5903 5903 5901 5899 5897 5896 5894 5893 5895 5899 5901 5902 5902
5908 5909 5912 5913 5910 5906 5906 5908 5909 5912 5912 5912 5909 5902 5899 5896 5904 5903 5900 5905 5906 5907 5905 5903 5903 5903 5903 5902 5902 5901 5900 5900 5898 5896 5894 5892 5892 5889 5886 5891 5894 5896 5897 5898
5901 5905 5909 5910 5907 5905 5905 5904 5905 5907 5912 5912 5912 5902 5897 5899 5900 5901 5899 5902 5904 5904 5903 5901 5899 5900 5899 5898 5898 5898 5897 5896 5895 5893 5892 5891 5889 5888 5888 5889 5890 5891 5892 5892
5897 5900 5904 5901 5900 5900 5901 5901 5902 5902 5904 5905 5905 5906 5906 5903 5901 5898 5898 5898 5899 5900 5899 5898 5896 5897 5896 5895 5894 5894 5894 5893 5892 5891 5889 5888 5888 5887 5886 5886 5886 5886 5886 5886
5892 5894 5895 5894 5895 5896 5895 5896 5897 5897 5898 5899 5900 5901 5902 5896 5896 5896 5897 5895 5895 5896 5896 5895 5894 5894 5894 5893 5892 5890 5889 5889 5888 5887 5885 5884 5883 5883 5882 5881 5880 5880 5880 5879
5888 5892 5892 5892 5893 5893 5892 5892 5892 5892 5893 5895 5896 5898 5896 5890 5890 5891 5892 5892 5890 5892 5892 5891 5890 5889 5890 5889 5888 5888 5886 5885 5883 5882 5881 5879 5878 5877 5876 5875 5874 5874 5873 5873
5886 5885 5886 5887 5886 5886 5890 5889 5887 5886 5887 5889 5890 5889 5886 5886 5885 5885 5885 5886 5886 5887 5887 5887 5886 5885 5885 5885 5884 5883 5883 5882 5880 5878 5877 5875 5874 5873 5871 5869 5869 5868 5867 5866
5878 5879 5880 5880 5881 5881 5882 5883 5882 5880 5881 5881 5882 5882 5879 5880 5879 5879 5880 5881 5881 5881 5882 5882 5881 5881 5880 5880 5879 5878 5877 5876 5874 5873 5871 5871 5869 5868 5866 5864 5863 5861 5860 5859
5869 5870 5871 5873 5872 5874 5879 5879 5874 5874 5875 5874 5874 5875 5874 5874 5874 5875 5875 5876 5876 5876 5876 5876 5876 5876 5875 5875 5874 5873 5871 5869 5868 5867 5866 5865 5864 5862 5860 5858 5856 5854 5853 5851
5855 5860 5861 5863 5863 5867 5870 5870 5867 5871 5874 5869 5869 5869 5869 5869 5868 5868 5871 5871 5870 5870 5870 5870 5870 5870 5870 5869 5869 5867 5865 5863 5862 5861 5859 5858 5856 5854 5853 5851 5849 5848 5846 5845
5849 5847 5852 5855 5857 5860 5864 5861 5863 5865 5861 5863 5863 5863 5864 5862 5864 5864 5866 5866 5866 5866 5865 5865 5865 5864 5864 5863 5863 5862 5860 5858 5856 5854 5853 5851 5850 5848 5846 5844 5841 5839 5837 5836
5836 5842 5844 5846 5851 5851 5848 5854 5855 5856 5856 5856 5857 5857 5857 5857 5858 5859 5859 5860 5860 5860 5859 5859 5859 5858 5857 5857 5856 5855 5853 5851 5850 5848 5847 5845 5843 5841 5838 5836 5833 5831 5828 5826
5825 5828 5829 5836 5837 5841 5837 5844 5846 5847 5847 5850 5850 5850 5850 5851 5850 5852 5853 5854 5854 5854 5854 5853 5852 5852 5852 5851 5849 5847 5844 5842 5840 5840 5839 5838 5836 5834 5832 5829 5826 5823 5820 5817
5809 5815 5816 5819 5825 5829 5826 5833 5836 5837 5838 5841 5843 5844 5843 5843 5844 5844 5844 5846 5847 5848 5848 5847 5846 5846 5846 5845 5843 5840 5837 5834 5832 5831 5829 5828 5827 5825 5822 5819 5816 5813 5810 5808
5790 5800 5803 5807 5813 5814 5816 5820 5824 5827 5830 5833 5835 5836 5835 5836 5835 5837 5838 5839 5839 5841 5841 5841 5840 5840 5839 5838 5837 5834 5832 5828 5825 5822 5821 5819 5817 5815 5812 5809 5806 5803 5800 5796